Location: Amarillo Post Office Jordan Station
(35.1907°N, 101.9342°W)
Time: 13:01:54
(UTC+00:00)

SJ-7 - Pass Details

Date: 24 January 2021
Orbit: 554 x 603 km, 97.7° (Epoch: 03 March)

Event Time Altitude Azimuth Distance (km) Brightness Sun altitude
Rises 12:26:00 0° 12° (NNE) 2,816 8.0 -17.6°
Reaches altitude 10° 12:28:11 10° 13° (NNE) 1,904 7.1 -17.2°
Maximum altitude 12:32:19 83° 101° (ESE) 583 4.4 -16.3°
Drops below altitude 10° 12:36:21 10° 191° (S) 1,861 7.0 -15.5°
Sets 12:38:27 0° 192° (SSW) 2,746 7.9 -15.1°
